Wind_Speed
13 11 11 12 14 15 16 20 22 20 19 18 11 9 8 9 11 15 18 22 25 28 31 34 37 39 41 42 45 47 47 50
14 13 14 14 15 14 15 17 19 18 14 14 10 9 9 11 13 17 19 22 26 29 33 35 36 39 42 45 46 47 49 49
18 18 19 20 21 20 17 14 14 12 11 11 13 10 10 13 16 19 23 27 31 34 35 38 40 42 45 47 47 47 47 52
16 15 11 10 11 9 5 7 9 10 10 9 7 10 12 16 21 26 30 33 36 38 39 40 42 44 45 46 47 47 45 47
14 11 10 8 7 1 9 12 8 8 8 10 10 14 19 22 28 31 35 38 39 40 42 43 44 43 44 45 45 43 46 44
14 15 11 7 4 11 12 11 16 16 15 16 18 22 25 28 31 34 38 39 40 42 43 44 44 43 43 42 44 44 43 42
19 15 10 4 12 7 10 12 15 16 19 22 24 28 31 33 35 39 38 38 41 42 45 42 42 41 42 42 41 38 35 33
16 11 9 7 10 10 12 16 17 20 23 26 30 33 33 34 38 39 39 40 40 39 39 40 40 40 40 41 41 39 38 39
16 13 12 11 10 14 17 19 22 26 28 30 33 32 34 37 37 38 39 39 39 39 39 39 39 39 41 40 37 39 37 35
18 15 15 14 15 19 22 25 28 34 34 36 28 34 40 39 36 37 38 38 40 41 40 39 39 38 36 32 31 35 33 31
22 20 17 18 21 23 26 30 33 37 35 33 34 40 36 35 35 37 38 39 41 41 41 41 38 31 26 31 34 29 30 30
24 23 22 23 26 28 30 33 37 40 37 38 42 35 33 34 37 39 41 42 42 42 41 39 38 36 33 28 26 28 29 27
27 26 27 28 30 29 33 37 40 42 33 37 34 32 34 37 40 41 43 44 44 43 41 39 37 35 27 25 26 30 28 26
30 30 31 33 33 31 37 40 40 33 33 32 35 36 37 39 41 43 45 46 45 44 41 40 37 30 27 25 29 27 26 30
33 34 35 36 33 36 39 40 34 32 33 36 35 36 38 39 41 45 46 46 44 42 40 38 34 30 27 23 22 25 28 30
32 34 35 34 34 36 40 32 32 34 37 33 34 36 38 40 43 46 46 44 43 42 39 35 30 27 24 22 24 28 28 32
27 30 32 33 33 37 33 33 35 37 33 32 33 36 38 41 44 46 45 43 42 40 36 28 24 25 25 25 24 26 29 32
24 27 30 31 34 34 36 32 36 32 30 31 34 37 39 42 45 45 43 42 40 37 32 22 25 27 24 23 23 26 28 30
23 27 29 31 34 37 30 32 30 27 29 32 35 37 40 43 44 43 41 39 36 35 29 26 25 24 24 24 24 25 27 28
Wind_Direction
196 208 216 224 231 240 254 262 271 281 280 301 319 310 284 287 295 303 303 302 301 298 296 295 295 294 295 296 297 298 303 301
225 230 239 246 251 258 270 265 271 287 293 305 299 295 291 297 303 301 297 294 296 299 303 303 301 300 300 302 304 305 305 301
243 247 252 256 257 257 260 271 277 278 284 277 282 285 299 308 307 303 304 308 309 307 306 305 303 302 302 303 304 304 305 305
245 240 224 223 230 232 250 293 282 270 264 270 287 308 307 304 307 311 313 312 310 309 307 305 303 303 303 303 304 303 301 298
210 193 197 197 198 254 318 310 272 279 299 313 302 298 298 303 307 313 314 313 310 307 304 304 305 306 305 305 304 301 298 296
189 191 208 224 302 321 314 306 309 309 304 297 290 295 299 300 307 311 309 307 307 307 308 308 308 308 306 303 301 300 297 296
193 218 231 247 320 283 285 301 309 298 284 285 286 286 291 302 309 309 307 310 311 311 309 309 309 308 305 302 300 299 300 285
218 228 229 301 297 277 282 279 277 275 277 279 284 286 292 301 309 307 307 309 310 309 310 311 311 309 306 306 305 304 301 298
226 229 244 293 275 266 265 271 274 274 271 277 282 284 298 315 312 310 311 314 316 317 317 315 314 311 307 306 303 304 301 301
228 241 252 278 271 265 265 270 273 274 273 278 283 300 310 313 309 311 317 321 321 321 319 318 316 312 308 300 295 300 297 296
237 244 256 268 267 268 270 274 279 281 279 288 314 318 312 309 314 319 323 324 322 322 323 322 319 310 298 291 298 294 294 297
246 250 258 268 267 268 274 279 282 283 287 307 316 312 309 315 322 325 326 325 325 326 324 322 319 313 307 296 293 292 289 295
251 256 263 270 269 271 281 279 281 288 303 319 313 309 319 324 325 326 327 327 327 326 326 324 320 314 308 295 291 289 294 295
255 260 266 272 270 276 281 280 281 304 316 309 310 319 322 324 325 326 328 327 327 327 325 325 322 315 306 290 287 288 292 298
256 261 268 271 267 276 277 278 302 309 310 309 313 318 321 322 325 327 326 326 324 324 325 321 316 311 303 298 296 286 296 295
259 266 271 266 267 274 278 294 303 310 307 308 312 317 320 324 325 325 323 322 324 323 319 316 314 309 305 293 287 293 295 299
262 266 266 268 268 278 282 298 303 303 302 308 313 317 321 322 322 322 321 322 322 318 317 315 307 299 304 298 296 298 299 302
261 266 266 263 266 278 284 292 297 296 302 309 315 318 319 320 321 319 319 319 318 317 316 306 303 305 306 305 305 302 303 304
262 260 261 262 269 271 282 287 289 298 307 315 317 316 318 318 317 316 317 317 317 317 315 309 307 306 308 310 309 306 305 307
Height
3171 3172 3174 3174 3174 3175 3174 3173 3173 3172 3171 3170 3169 3169 3169 3168 3168 3167 3165 3163 3160 3158 3154 3150 3146 3142 3138 3134 3129 3124 3119 3112
3168 3169 3170 3171 3171 3171 3171 3170 3170 3170 3168 3167 3167 3166 3166 3165 3164 3162 3160 3157 3154 3151 3147 3143 3139 3134 3129 3123 3119 3113 3108 3102
3163 3165 3166 3167 3167 3167 3167 3167 3167 3166 3165 3164 3164 3162 3162 3160 3159 3157 3154 3151 3148 3144 3140 3134 3129 3124 3118 3113 3108 3103 3098 3089
3160 3161 3162 3162 3163 3164 3165 3165 3163 3162 3162 3161 3159 3157 3156 3155 3153 3150 3147 3143 3139 3134 3129 3124 3119 3114 3109 3102 3097 3092 3089 3083
3156 3159 3159 3160 3160 3161 3161 3160 3159 3159 3157 3155 3154 3153 3152 3150 3147 3143 3139 3135 3130 3125 3120 3114 3109 3104 3098 3091 3086 3083 3076 3074
3154 3155 3156 3157 3158 3158 3157 3157 3156 3154 3153 3152 3150 3149 3146 3143 3140 3137 3132 3126 3120 3115 3109 3103 3098 3093 3087 3082 3076 3072 3067 3061
3150 3152 3153 3154 3154 3154 3153 3152 3151 3150 3149 3147 3146 3143 3140 3136 3133 3127 3121 3116 3111 3105 3098 3094 3088 3083 3077 3071 3066 3060 3055 3051
3147 3149 3149 3149 3149 3149 3148 3147 3146 3145 3143 3141 3139 3136 3133 3128 3124 3118 3114 3108 3103 3098 3091 3084 3078 3072 3065 3059 3053 3049 3044 3041
3144 3145 3146 3145 3144 3144 3143 3142 3141 3138 3136 3134 3131 3128 3124 3120 3115 3110 3104 3098 3092 3087 3081 3075 3069 3062 3056 3050 3045 3040 3036 3032
3141 3142 3142 3141 3140 3139 3138 3136 3134 3131 3128 3125 3122 3121 3116 3111 3106 3101 3095 3089 3083 3077 3072 3066 3059 3053 3047 3042 3038 3032 3029 3026
3137 3138 3137 3136 3135 3134 3132 3130 3128 3124 3122 3119 3116 3111 3107 3103 3098 3092 3086 3081 3075 3069 3061 3055 3050 3046 3041 3035 3030 3027 3022 3019
3132 3132 3132 3131 3129 3128 3126 3124 3121 3118 3115 3111 3108 3104 3099 3095 3089 3083 3077 3072 3065 3058 3052 3046 3040 3035 3031 3027 3023 3019 3016 3012
3127 3127 3126 3125 3123 3121 3120 3117 3114 3111 3106 3103 3100 3096 3091 3084 3079 3074 3068 3061 3055 3048 3042 3036 3031 3025 3021 3019 3015 3012 3008 3005
3121 3120 3119 3118 3116 3115 3112 3109 3107 3103 3099 3097 3092 3086 3082 3076 3071 3065 3058 3052 3045 3039 3033 3027 3021 3017 3014 3011 3007 3004 3001 2998
3115 3114 3113 3111 3110 3108 3105 3102 3099 3097 3093 3089 3083 3078 3074 3069 3063 3056 3050 3043 3038 3031 3024 3019 3015 3010 3007 3003 3000 2997 2994 2991
3108 3107 3106 3105 3103 3100 3097 3095 3092 3088 3085 3081 3076 3071 3066 3060 3054 3049 3042 3036 3029 3023 3018 3012 3007 3002 2999 2996 2993 2991 2987 2984
3102 3101 3100 3098 3095 3093 3090 3087 3084 3081 3077 3073 3068 3063 3058 3052 3047 3040 3033 3027 3021 3016 3010 3006 3002 2997 2993 2990 2987 2984 2980 2976
3095 3094 3093 3090 3088 3086 3083 3080 3076 3073 3069 3065 3060 3055 3050 3044 3038 3032 3025 3019 3014 3007 3003 2999 2995 2990 2987 2984 2981 2977 2973 2969
3088 3086 3085 3083 3080 3077 3073 3071 3068 3064 3061 3057 3052 3047 3041 3036 3029 3023 3017 3011 3005 2999 2995 2992 2988 2984 2981 2978 2974 2971 2967 2962